SCP
-0 0 0 0 0 0 0 0 0 0 0 0 0 0 0 0 0 0 0 0 0 0
0 0 0 0 0 0 0 0 0 0 0 0 0 0 0 0 0 0 0 0 0 0
0 0 0 0 0 0 0 0 0 0 0 0 0 0 0 0 0 0 0 0 0 0
0 0 0 0 0 0 0 0 0 0 0 0 0 0 0 0 0 0 0 0 0 0
0 0 0 0 0 0 0 0 0 0 0 0 0 0 0 0 0 0 0 0 0 0
0 0 0 0 0 0 0 0 0 0 0 0 0 0 0 0 0 0 0 0 0 0
0 0 0 0 0 0 0 0 0 0 0 0 0 0 0 0 0 0 0 0 0 0
0 0 0 0 0 0 0 0 0 0 0 0 0 0 0 0 0 0 0 0 0 0
0 0 0 0 0 0 0 0 0 0 0 0 0 0 0 0 0 0 0 0 0 0
0 0 0 0 0 0 0 0 0 0 0 0 0 0 0 0 0 0 0 0 0 0
0 0 0 0 0 0 0 0 0 0 0 0 0 0 0 0 0 0 0 0 0 0
0 0 0 0 0 0 0 0 0 0 0 0 0 0 0 0 0 0 0 0 0 0
0 0 0 0 0 0 0 0 0 0 0 0 0 0 0 0 0 0 0 0 0 -0
0 0 0 0 0 0 0 0 0 0 0 0 0 0 0 0 0 0 0 0 0 0
Wind_Speed_500mb
24 21 21 21 19 17 16 14 12 14 19 26 21 23 33 29 30 30 40 42 42 39
20 21 26 31 29 20 22 21 19 17 18 22 26 22 28 23 24 22 24 26 28 33
13 10 13 16 21 21 21 22 22 22 21 25 31 24 27 23 22 21 17 16 24 22
7 11 18 19 22 25 28 32 34 34 36 32 31 29 28 28 25 23 20 17 17 21
11 12 17 22 27 32 37 43 48 47 44 41 36 38 33 30 30 25 25 23 22 19
13 14 21 26 32 39 47 54 56 54 54 49 47 46 41 31 32 27 25 25 24 22
17 22 28 35 41 48 52 55 53 52 50 50 47 51 45 47 47 35 29 28 29 26
20 26 31 38 44 46 46 44 45 45 43 41 42 35 47 61 59 55 44 35 33 29
18 25 31 37 38 36 36 36 36 36 35 36 33 41 56 58 60 64 60 49 39 36
23 27 30 32 33 34 35 37 39 37 34 36 36 44 55 55 54 52 50 48 43 41
27 30 32 33 33 34 36 37 36 36 35 37 38 49 55 52 53 50 44 42 39 41
30 32 32 34 36 35 35 34 33 34 35 36 38 42 54 46 38 38 39 38 38 38
33 33 35 35 35 33 33 33 31 33 32 34 39 36 44 44 30 33 33 34 34 40
33 35 34 35 32 33 35 33 35 37 33 31 31 28 38 38 27 26 31 31 28 26
Wind_Direction_500mb
76 70 61 60 59 44 40 30 10 351 337 326 308 279 278 290 285 267 269 269 268 261
75 79 64 46 40 30 24 19 12 356 341 343 321 321 301 302 303 302 294 277 273 263
67 48 13 359 348 354 357 350 343 334 334 330 321 322 309 303 298 303 296 292 288 282
28 347 344 348 347 342 336 332 326 325 327 330 320 313 307 302 300 295 296 295 293 290
326 319 322 326 326 326 321 319 317 313 312 315 313 303 302 298 291 294 296 295 296 299
301 299 305 311 312 312 310 308 307 305 304 300 299 300 299 299 284 291 289 295 294 297
280 288 297 301 304 303 302 301 302 303 303 300 290 282 291 281 284 290 290 286 287 289
279 290 297 300 302 303 303 302 302 301 300 300 297 295 271 272 278 284 286 286 282 283
294 301 304 304 307 307 306 304 303 301 300 298 295 276 274 278 277 277 279 279 280 275
303 305 305 305 306 305 304 305 304 303 302 298 295 289 287 285 282 279 279 277 275 276
307 306 306 307 306 304 303 300 300 298 298 297 296 295 294 288 281 281 281 278 273 269
309 307 305 307 307 303 306 303 301 298 296 293 293 289 291 298 291 286 280 278 275 272
309 305 304 304 306 305 305 303 299 291 289 288 290 292 294 298 297 294 287 278 276 284
308 303 304 301 300 302 301 297 299 298 297 294 294 288 288 297 296 288 284 279 275 276
Wind_Speed_850mb
24 21 21 21 19 17 16 14 12 14 19 26 21 23 33 29 30 30 40 42 42 39
20 21 26 31 29 20 22 21 19 17 18 22 26 22 28 23 24 22 24 26 28 33
13 10 13 16 21 21 21 22 22 22 21 25 31 24 27 23 22 21 17 16 24 22
7 11 18 19 22 25 28 32 34 34 36 32 31 29 28 28 25 23 20 17 17 21
11 12 17 22 27 32 37 43 48 47 44 41 36 38 33 30 30 25 25 23 22 19
13 14 21 26 32 39 47 54 56 54 54 49 47 46 41 31 32 27 25 25 24 22
17 22 28 35 41 48 52 55 53 52 50 50 47 51 45 47 47 35 29 28 29 26
20 26 31 38 44 46 46 44 45 45 43 41 42 35 47 61 59 55 44 35 33 29
18 25 31 37 38 36 36 36 36 36 35 36 33 41 56 58 60 64 60 49 39 36
23 27 30 32 33 34 35 37 39 37 34 36 36 44 55 55 54 52 50 48 43 41
27 30 32 33 33 34 36 37 36 36 35 37 38 49 55 52 53 50 44 42 39 41
30 32 32 34 36 35 35 34 33 34 35 36 38 42 54 46 38 38 39 38 38 38
33 33 35 35 35 33 33 33 31 33 32 34 39 36 44 44 30 33 33 34 34 40
33 35 34 35 32 33 35 33 35 37 33 31 31 28 38 38 27 26 31 31 28 26
Wind_Direction_850mb
76 70 61 60 59 44 40 30 10 351 337 326 308 279 278 290 285 267 269 269 268 261
75 79 64 46 40 30 24 19 12 356 341 343 321 321 301 302 303 302 294 277 273 263
67 48 13 359 348 354 357 350 343 334 334 330 321 322 309 303 298 303 296 292 288 282
28 347 344 348 347 342 336 332 326 325 327 330 320 313 307 302 300 295 296 295 293 290
326 319 322 326 326 326 321 319 317 313 312 315 313 303 302 298 291 294 296 295 296 299
301 299 305 311 312 312 310 308 307 305 304 300 299 300 299 299 284 291 289 295 294 297
280 288 297 301 304 303 302 301 302 303 303 300 290 282 291 281 284 290 290 286 287 289
279 290 297 300 302 303 303 302 302 301 300 300 297 295 271 272 278 284 286 286 282 283
294 301 304 304 307 307 306 304 303 301 300 298 295 276 274 278 277 277 279 279 280 275
303 305 305 305 306 305 304 305 304 303 302 298 295 289 287 285 282 279 279 277 275 276
307 306 306 307 306 304 303 300 300 298 298 297 296 295 294 288 281 281 281 278 273 269
309 307 305 307 307 303 306 303 301 298 296 293 293 289 291 298 291 286 280 278 275 272
309 305 304 304 306 305 305 303 299 291 289 288 290 292 294 298 297 294 287 278 276 284
308 303 304 301 300 302 301 297 299 298 297 294 294 288 288 297 296 288 284 279 275 276